EHI
0 0 0 0 0 0 0 0 0 0 0 0 0 0 0 0 0 0 0 0 0 0 0 0 0 0 0 0 0 0 0 0 0 0 0 0 0 0 0 0 0 0 0
0 0 0 0 0 0 0 0 0 0 0 0 0 0 0 0 0 0 0 0 0 0 0 0 0 0 0 0 0 0 0 0 0 0 0 0 0 0 0 0 0 0 0
0 0 0 0 0 0 0 0 0 0 0 0 0 0 0 0 0 0 0 0 0 0 0 0 0 0 0 0 0 0 0 0 0 0 0 0 0 0 0 0 0 0 0
0 0 0 0 0 0 0 0 0 0 0 0 0 0 0 0 0 0 0 0 0 0 0 0 0 0 0 0 0 0 0 0 0 0 0 0 0 0 0 0 0 0 0
0 0 0 0 0 0 0 0 0 0 0 0 0 0 0 0 0 0 0 0 0 0 0 0 0 0 0 0 0 0 0 0 0 0 0 0 0 0 0 0 0 0 0
0 0 0 0 0 0 0 0 0 0 0 0 0 0 0 0 0 0 0 0 0 0 0 0 0 0 0 0 0 0 0 0 0 0 0 0 0 0 0 0 0 0 0
0 0 0 0 0 0 0 0 0 0 0 0 0 0 0 0 0 0 0 0 0 0 0 0 0 0 0 0 0 0 0 0 0 0 0 0 0 0 0 0 0 0 0
0 0 0 0 0 0 0 0 0 0 0 0 0 0 0 0 0 0 0 0 0 0 0 0 0 0 0 0 0 0 0 0 0 0 0 0 0 0 0 0 0 0 0
0 0 0 0 0 0 0 0 0 0 0 0 0 0 0 0 0 0 0 0 0 0 0 0 0 0 0 0 0 0 0 0 0 0 0 0 0 0 0 0 0 0 0
0 0 0 0 0 0 0 0 0 0 0 0 0 0 0 0 0 0 0 0 0 0 0 0 0 0 0 0 0 0 0 0 0 0 0 0 0 0 0 0 0 0 0
0 0 0 0 0 0 0 0 0 0 0 0 0 0 0 0 0 0 0 0 0 0 0 0 0 0 0 0 0 0 0 0 0 0 0 0 0 0 0 0 0 0 0
0 0 0 0 0 0 0 0 0 0 0 0 0 0 0 0 0 0 0 0 0 0 0 0 0 0 0 0 0 0 0 0 0 0 0 0 0 0 0 0 0 0 0
0 0 0 0 0 0 0 0 0 0 0 0 0 0 0 0 0 0 0 0 0 0 0 0 0 0 0 0 0 0 0 0 0 0 0 0 0 0 0 0 0 0 0
0 0 0 0 0 0 0 0 0 0 0 0 0 0 0 0 0 0 0 0 0 0 0 0 0 0 0 0 0 0 0 0 0 0 0 0 0 0 0 0 0 0 0
0 0 0 0 0 0 0 0 0 0 0 0 0 0 0 0 0 0 0 0 0 0 0 0 0 0 0 0 0 0 0 0 0 0 0 0 0 0 0 0 0 0 0
0 0 0 0 0 0 0 0 0 0 0 0 0 0 0 0 0 0 0 0 0 0 0 0 0 0 0 0 0 0 0 0 0 0 0 0 0 0 0 0 0 0 0
0 0 0 0 0 0 0 0 0 0 0 0 0 0 0 0 0 0 0 0 0 0 0 0 0 0 0 0 0 0 0 0 0 0 0 0 0 0 0 0 0 0 0
0 0 0 0 0 0 0 0 0 0 0 0 0 0 0 0 0 0 0 0 0 0 0 0 0 0 0 0 0 0 0 0 0 0 0 0 0 0 0 0 0 0 0
0 0 0 0 0 0 0 0 0 0 0 0 0 0 0 0 0 0 0 0 0 0 0 0 0 0 0 0 0 0 0 0 0 0 0 0 0 0 0 0 0 0 0
0 0 0 0 0 0 0 0 0 0 0 0 0 0 0 0 0 0 0 0 0 0 0 0 0 0 0 0 0 0 0 0 0 0 0 0 0 0 0 0 0 0 0
0 0 0 0 0 0 0 0 0 0 0 0 0 0 0 0 0 0 0 0 0 0 0 0 0 0 0 0 0 0 0 0 0 0 0 0 0 0 0 0 0 0 0
0 0 0 0 0 0 0 0 0 0 0 0 0 0 0 0 0 0 0 0 0 0 0 0 0 0 0 0 0 0 0 0 0 0 0 0 0 0 0 0 0 0 0
0 0 0 0 0 0 0 0 0 0 0 0 0 0 0 0 0 0 0 0 0 0 0 0 0 0 0 0 0 0 0 0 0 0 0 0 0 0 0 0 0 0 0
0 0 0 0 0 0 0 0 0 0 0 0 0 0 0 0 0 0 0 0 0 0 0 0 0 0 0 0 0 0 0 0 0 0 0 0 0 0 0 0 0 0 0
0 0 0 0 0 0 0 0 0 0 0 0 0 0 0 0 0 0 0 0 0 0 0 0 0 0 0 0 0 0 0 0 0 0 0 0 0 0 0 0 0 0 0
0 0 0 0 0 0 0 0 0 0 0 0 0 0 0 0 0 0 0 0 0 0 0 0 0 0 0 0 0 0 0 0 0 0 0 0 0 0 0 0 0 0 0
Wind_Speed
5 5 4 4 4 4 4 3 2 3 3 2 2 3 3 3 4 5 3 8 7 7 7 8 8 9 9 10 10 10 11 11 11 12 12 12 13 13 13 13 14 14 14
5 5 5 5 4 4 3 3 3 3 2 2 2 3 3 3 3 5 4 5 7 7 7 7 7 8 8 9 9 9 10 10 11 11 12 12 13 13 13 14 14 14 14
7 5 5 4 4 4 4 2 3 3 3 2 2 3 3 2 2 3 5 4 4 6 6 6 6 7 7 8 8 8 9 10 10 11 11 12 12 13 13 14 14 14 14
8 6 5 5 5 4 3 3 3 3 2 2 2 2 2 2 2 2 3 3 3 3 4 5 5 5 6 6 7 7 8 9 10 10 11 12 12 13 13 14 14 14 15
8 6 5 5 5 4 3 3 3 3 2 2 2 2 1 1 1 1 2 3 3 4 3 3 3 3 3 5 6 7 7 8 9 10 11 12 12 13 13 14 14 15 15
8 7 5 6 6 5 4 4 3 3 3 3 2 1 1 1 1 2 2 3 3 3 3 3 2 1 0 2 4 6 7 8 9 10 11 12 12 13 14 14 15 15 16
9 7 6 6 6 5 5 5 4 4 2 3 2 0 1 1 2 2 2 2 3 3 3 2 2 2 1 1 2 5 7 8 9 10 11 12 13 13 14 15 15 16 16
9 8 8 6 6 5 6 6 5 4 3 3 3 2 0 2 2 2 2 2 3 2 3 3 2 2 1 1 1 3 6 8 10 11 12 12 14 14 15 15 16 17 17
10 9 9 7 7 7 6 6 6 6 4 3 3 3 3 3 1 2 3 3 3 2 3 3 3 3 2 2 1 2 5 7 9 11 12 13 14 15 16 16 17 18 18
10 10 10 9 8 7 7 7 7 5 6 4 2 2 2 3 3 1 2 3 4 4 4 3 3 3 3 2 3 3 4 7 9 11 13 14 15 16 16 17 18 18 19
10 11 10 9 9 7 8 8 7 6 5 5 4 3 2 0 1 3 2 2 2 3 3 4 3 3 3 3 2 3 5 7 10 12 13 14 15 16 18 18 19 19 19
9 11 11 10 9 8 8 8 8 8 6 6 4 4 4 3 3 3 3 2 3 3 3 3 3 3 3 3 4 5 6 8 10 12 13 14 15 17 18 19 19 19 20
9 13 11 11 9 8 8 8 8 8 7 7 6 4 4 3 3 3 3 2 2 2 2 2 3 3 3 2 2 5 7 9 11 13 14 15 16 17 18 19 19 20 21
10 11 12 11 10 10 9 8 7 7 7 7 7 6 3 3 3 3 3 3 1 2 2 4 2 2 2 2 4 5 4 10 12 13 15 16 16 17 18 19 20 20 21
9 11 12 11 11 10 10 9 7 8 7 7 6 6 4 3 3 3 3 3 4 3 3 4 2 2 2 2 3 3 3 9 12 14 15 16 17 17 18 19 20 20 21
10 12 11 11 11 10 10 9 7 7 8 6 5 6 5 3 3 3 3 2 3 4 3 3 2 2 1 1 4 2 3 10 12 14 16 16 17 17 18 19 20 20 20
12 12 12 12 12 11 11 10 8 9 9 7 6 7 6 5 4 3 3 2 2 3 3 3 2 1 1 2 2 2 3 3 5 13 16 16 17 17 18 19 20 20 21
11 12 12 12 11 11 11 11 10 10 10 9 8 7 7 5 5 4 3 4 3 3 3 4 2 1 2 2 2 3 3 4 4 11 15 16 16 17 18 19 20 20 19
10 11 11 12 11 11 11 10 10 10 9 9 9 9 7 7 6 4 4 4 3 2 2 2 2 1 2 2 2 3 4 3 5 8 12 14 15 17 18 19 19 19 18
11 11 11 11 11 10 10 10 9 9 8 7 7 8 7 8 8 6 5 4 3 2 1 1 2 2 2 2 1 3 4 3 5 6 8 10 13 16 18 19 19 18 18
10 11 11 10 10 9 9 10 9 8 8 7 6 6 6 7 8 6 5 4 4 3 2 2 2 2 2 2 2 2 4 4 4 4 3 5 6 5 7 13 16 17 17
10 10 11 11 10 8 12 13 10 8 8 8 7 6 6 7 7 8 7 6 6 4 4 3 2 3 3 3 2 3 3 4 4 3 3 5 4 5 5 5 13 17 17
10 10 10 10 10 10 14 14 13 8 7 7 7 6 4 4 6 4 5 4 4 5 4 3 3 3 3 3 2 3 3 3 4 4 4 5 4 5 5 8 17 17 17
10 10 10 10 9 10 14 14 13 8 6 6 6 6 6 5 5 5 4 3 2 2 3 2 3 3 2 2 2 2 2 3 4 4 3 4 4 4 6 6 13 16 18
9 9 9 10 9 10 14 15 13 6 5 5 5 6 6 5 6 6 5 4 2 2 2 2 3 3 4 5 4 2 2 3 5 4 2 2 4 6 5 4 7 15 19
9 9 8 8 9 9 13 14 12 6 6 5 4 4 6 6 7 7 5 4 4 3 1 1 1 2 2 3 5 1 1 2 4 4 2 2 3 5 6 3 4 6 9
Wind_Direction
153 156 159 158 165 155 159 184 171 137 118 99 83 80 79 80 90 101 95 86 74 64 62 61 54 51 46 42 37 33 28 25 23 20 17 15 11 9 6 5 3 0 358
159 161 157 157 162 151 159 174 141 128 117 103 91 85 80 82 94 113 121 98 88 77 67 61 52 48 43 38 35 30 25 21 19 15 13 10 6 3 1 359 357 355 353
163 163 155 158 158 152 156 150 126 116 110 109 109 93 81 70 77 111 126 128 111 91 79 65 52 47 39 33 30 25 20 16 12 9 6 4 0 357 355 353 352 350 348
163 162 152 159 156 148 147 139 133 128 129 134 112 96 97 90 73 95 113 126 128 120 101 88 66 47 33 26 21 17 14 10 6 2 359 356 353 350 348 347 345 344 343
164 158 155 160 151 145 149 152 146 143 142 128 117 115 113 125 134 130 129 124 121 125 129 123 107 69 30 15 8 6 3 1 358 354 351 348 346 344 342 341 340 338 337
166 159 157 162 152 149 155 153 150 143 133 134 121 114 142 156 177 170 161 140 142 147 148 153 151 160 102 359 356 353 351 351 349 346 344 341 339 338 335 335 333 332 331
169 164 162 165 159 160 165 163 152 143 142 129 104 70 305 234 195 182 179 166 167 163 163 172 170 165 187 249 336 339 338 338 339 339 337 335 333 331 330 329 329 328 327
173 173 167 168 164 163 169 171 154 147 159 153 149 141 196 304 281 217 192 184 184 177 187 189 181 181 175 163 231 304 321 326 329 332 332 331 329 327 327 327 326 325 324
177 175 174 169 171 168 175 176 165 158 163 184 181 158 164 209 233 255 224 203 199 200 206 198 197 196 193 177 189 270 300 312 319 324 326 326 324 324 324 324 324 323 322
181 178 178 176 175 173 175 178 172 166 158 174 201 204 180 162 150 225 275 237 216 214 213 207 200 202 196 190 201 229 280 301 311 317 320 321 321 321 321 322 321 320 319
185 182 181 182 180 179 178 178 173 173 170 167 169 170 192 196 172 157 226 255 253 237 218 209 200 200 198 193 199 225 270 292 303 310 314 316 317 319 319 319 319 318 317
189 188 185 187 185 182 181 179 175 177 179 172 170 164 162 170 193 182 201 221 236 245 229 211 201 203 201 198 214 232 262 284 297 304 308 311 314 315 316 316 316 315 315
189 193 189 189 188 184 178 174 175 180 179 177 176 179 178 182 171 169 175 213 231 254 231 233 218 201 205 195 215 236 259 281 293 299 303 307 309 311 312 313 313 313 314
190 187 187 188 186 182 179 176 176 179 179 180 181 175 176 186 176 171 168 163 213 276 253 250 240 206 206 200 225 230 255 279 290 297 302 305 307 309 310 311 312 312 313
182 181 185 186 184 181 180 176 180 180 178 182 181 179 176 180 176 175 165 157 163 212 253 246 235 229 214 212 233 232 244 280 293 298 301 304 306 308 310 311 312 311 311
176 177 182 184 183 180 179 178 178 177 176 179 174 177 179 172 169 170 174 173 167 179 232 245 232 240 236 263 267 264 264 292 297 300 302 304 305 307 309 310 310 310 311
175 177 180 182 183 182 180 181 181 175 178 178 177 180 182 168 167 176 172 177 186 176 223 264 257 270 258 269 290 281 278 280 292 301 303 305 306 308 309 310 310 311 311
176 176 176 179 182 180 181 182 182 178 179 180 180 177 179 169 173 177 177 190 199 194 197 248 275 277 265 266 275 284 294 296 288 299 304 307 309 311 313 313 313 313 315
173 171 172 177 179 178 179 182 181 178 179 180 178 178 177 171 180 178 182 191 200 202 190 216 267 280 283 289 295 295 297 294 298 302 305 308 311 315 315 315 316 317 318
170 170 170 174 175 174 176 176 175 175 175 175 175 177 176 177 182 180 184 189 183 188 197 222 262 281 285 295 305 295 301 293 297 300 301 309 313 315 316 316 318 319 319
167 166 166 167 168 169 173 171 169 169 170 170 170 173 175 176 179 179 182 183 178 183 194 225 254 281 285 302 287 280 291 298 295 287 308 310 309 304 308 312 316 317 319
162 161 164 166 167 167 166 167 166 166 168 169 169 169 170 172 181 188 192 188 184 186 197 203 229 249 265 273 280 294 301 317 308 304 315 302 303 299 298 294 311 319 322
157 158 161 162 163 162 161 164 163 160 162 166 166 166 164 168 169 174 187 192 208 218 208 198 219 238 250 255 270 287 289 290 281 292 313 295 296 297 301 311 318 320 324
158 159 160 159 156 159 160 161 157 155 155 161 164 165 163 165 174 170 167 172 192 209 220 210 215 235 251 260 250 271 287 301 293 293 300 290 299 301 308 306 313 322 328
152 154 156 156 155 156 159 157 154 154 151 152 150 151 157 166 177 169 159 169 190 236 259 263 272 285 305 313 324 359 339 327 310 303 288 286 306 314 300 292 313 328 330
144 144 146 151 152 153 158 156 154 152 150 147 142 149 158 164 171 169 168 174 195 213 197 239 277 303 312 316 327 318 256 299 307 303 318 327 309 329 315 297 312 319 319